Regional Weather Roundup
Issued by NWS Jackson, KY

Home | Current Version | Previous Version | Graphics & Text | Print | Product List | Glossary On
Versions: 1 2 3 4 5 6 7 8 9 10 11 12 13 14 15 16 17 18 19 20 21 22 23 24 25 26 27 28 29 30 31 32 33 34 35 36 37 38 39 40 41 42 43 44 45 46 47 48 49 50
000
ASUS43 KJKL 051810
RWRJKL

EAST KENTUCKY HOURLY WEATHER ROUNDUP
NATIONAL WEATHER SERVICE JACKSON KY
200 PM EDT SUN JUL 05 2015

NOTE: "FAIR" INDICATES FEW OR NO CLOUDS BELOW 12,000 FEET WITH
NO SIGNIFICANT WEATHER AND/OR OBSTRUCTIONS TO VISIBILITY.

* THESE REPORTS ARE NOT UNDER NWS QUALITY CONTROL AND MAY NOT
  REPORT WEATHER SUCH AS PRECIPITATION AND FOG.

KYZ079-080-083-085-087-088-110-112-115-119-120-051900
...EASTERN KENTUCKY...

CITY           SKY/WX    TMP DP  RH WIND       PRES   REMARKS
JACKSON        CLOUDY    73  68  84 CALM      30.09F
6HR MIN TEMP:  68; 6HR MAX TEMP:  73; 6HR PCP:  0.13;

LONDON         HVY RAIN  69  65  86 N6        30.08S FOG
6HR MIN TEMP:  68; 6HR MAX TEMP:  70; 6HR PCP:  1.05;

SOMERSET*      CLOUDY    72  64  78 CALM      30.08F
MONTICELLO*    CLOUDY    74  70  87 CALM      30.11S
6HR MIN TEMP:  69; 6HR MAX TEMP:  75;

MIDDLESBORO*   CLOUDY    74  68  82 S5        30.07S
6HR MIN TEMP:  67; 6HR MAX TEMP:  74; 6HR PCP:  0.07;

HARLAN APT*      N/A     72  64  78 N9        30.08F
HAZARD APT*    LGT RAIN  72  68  88 CALM      30.08F
BLACK MTN*       N/A     61  61 100 SW7         N/A
PIKEVILLE APT* MOSUNNY   77  68  73 NE7       30.08F
BIG SANDY*     MOCLDY    78  69  73 NE7       30.08F
6HR MIN TEMP:  68; 6HR MAX TEMP:  79;

MOREHEAD APT*  CLOUDY    72  66  83 CALM      30.11F
$$

KYZ035-036-041-042-044-050-067-078-099-051900
...CENTRAL KENTUCKY...

CITY           SKY/WX    TMP DP  RH WIND       PRES   REMARKS
MT STERLING*   LGT RAIN  70  68  94 NE5       30.10F
FLEMING/MASON* SUNNY     73  64  73 NE8       30.10F
DANVILLE*      CLOUDY    72  68  88 N6        30.09F
RICHMOND*      PTSUNNY   72  66  83 CALM      30.08F
LEXINGTON      CLOUDY    74  67  78 NE6       30.08F
6HR MIN TEMP:  69; 6HR MAX TEMP:  74; 6HR PCP: TRACE;

FRANKFORT      CLOUDY    76  64  66 VRB3      30.07F
6HR MIN TEMP:  69; 6HR MAX TEMP:  76;

$$

KYZ091>093-OHZ055-061-077-WVZ005-015-034-035-042-051900
...SOUTHERN OHIO/WEST VIRGINIA...

CITY           SKY/WX    TMP DP  RH WIND       PRES   REMARKS
COVINGTON      CLOUDY    79  59  50 NE8       30.09F
COLUMBUS       CLOUDY    77  59  53 SE6       30.10F
DAYTON         CLOUDY    78  60  53 NE5       30.12F
WILMINGTON     CLOUDY    76  60  57 VRB5      30.10F
HUNTINGTON     CLOUDY    73  68  84 NE5       30.08F
CHARLESTON     CLOUDY    79  68  69 N3        30.08F
PINEVILLE*     PTSUNNY   79  69  71 MISG      30.13F
BECKLEY        PTSUNNY   76  63  64 SE12      30.16F
BLUEFIELD      MOSUNNY   79  64  60 VRB5      30.16F
$$

VAZ002-007-008-TNZ017-027-036-066-071-051900
...SOUTHWEST VIRGINIA/EAST TENNESSEE...

CITY           SKY/WX    TMP DP  RH WIND       PRES   REMARKS
WISE*          CLOUDY    77  61  57 S5        30.13F
JONESVILLE*      N/A    N/A N/A N/A MISG        N/A
ABINGDON*      MOSUNNY   84  66  55 SW8       30.09F
BRISTOL        PTSUNNY   84  63  49 S10       30.05F
KNOXVILLE      CLOUDY    76  67  73 SW18      30.06F
OAK RIDGE      LGT RAIN  74  67  78 VRB3      30.08S
CROSSVILLE     PTSUNNY   76  65  68 NW8       30.12S
NASHVILLE      PTSUNNY   81  71  71 CALM      30.10R
$$

...KEY TO REMARKS...
VSB - VISIBILITY IN MILES
WCI - WIND CHILL INDEX
HX  - HEAT INDEX

$$


USA.gov is the U.S. government's official web portal to all federal, state and local government web resources and services.